Date String (YYYY-MM-DD hh:mm:ss) UTC,Instrument flags,Ambient pressure (hPa),Sample flow (lpm),Bypass flow (lpm),Sample temperature (°C),Ambient temperature (°C),ASC tube jacket temperature (°C),LED temperature (°C),Box temperature (°C),Sample RH (%),Span deviation,Mass concentration (μg/m³),Mass concentration (μg/m³),Mass concentration (μg/m³)
DateTimeUTC,F1_M11,P_M11,Q1_M11,Q2_M11,T1_M11,T2_M11,T3_M11,T4_M11,T5_M11,U1_M11,ZSPAN_M11,X0_M11,X2_M11,X1_M11
2022-11-26 01:00:00,,0828.2,5.00,0.00,27.7,26.1,00.0,36.7,29.4,10.4,0000.0,0005.62,0001.26,0000.88
2022-11-26 01:01:00,,0828.2,5.01,0.00,27.6,26.1,00.0,36.7,29.4,10.3,0000.0,0004.81,0001.27,0000.88
2022-11-26 01:02:00,,0828.2,4.99,0.00,27.6,26.1,00.0,36.7,29.3,10.2,0000.0,0004.31,0001.24,0000.88
2022-11-26 01:03:00,,0828.2,5.01,0.00,27.6,26.1,00.0,36.7,29.3,10.2,0000.0,0004.11,0001.23,0000.89
2022-11-26 01:04:00,,0828.2,5.00,0.00,27.6,26.0,00.0,36.7,29.3,10.2,0000.0,0003.37,0001.25,0000.90
2022-11-26 01:05:00,,0828.2,5.00,0.00,27.6,26.0,00.0,36.6,29.2,10.2,0000.0,0003.36,0001.25,0000.91
2022-11-26 01:06:00,,0828.2,5.00,0.00,27.6,26.0,00.0,36.6,29.3,10.1,0000.0,0003.32,0001.26,0000.92
2022-11-26 01:07:00,,0828.2,4.99,0.00,27.6,26.0,00.0,36.6,29.2,10.1,0000.0,0002.55,0001.27,0000.92
2022-11-26 01:08:00,,0828.2,5.02,0.00,27.6,26.0,00.0,36.6,29.3,10.1,0000.0,0002.10,0001.25,0000.92
2022-11-26 01:09:00,,0828.2,5.00,0.00,27.6,26.0,00.0,36.6,29.3,10.1,0000.0,0001.99,0001.20,0000.91
2022-11-26 01:10:00,,0828.2,4.99,0.00,27.5,26.0,00.0,36.6,29.2,10.1,0000.0,0001.96,0001.17,0000.90
2022-11-26 01:11:00,,0828.2,5.01,0.00,27.5,25.9,00.0,36.6,29.3,10.1,0000.0,0001.99,0001.18,0000.91
2022-11-26 01:12:00,,0828.2,4.99,0.00,27.5,25.9,00.0,36.6,29.2,10.1,0000.0,0001.91,0001.15,0000.90
2022-11-26 01:13:00,,0828.1,5.00,0.00,27.5,25.9,00.0,36.5,29.2,10.1,0000.0,0001.98,0001.17,0000.90
2022-11-26 01:14:00,,0828.1,4.99,0.00,27.5,25.9,00.0,36.5,29.2,10.1,0000.0,0002.02,0001.17,0000.90
2022-11-26 01:15:00,,0828.1,5.02,0.00,27.5,25.9,00.0,36.5,29.2,10.1,0000.0,0002.14,0001.19,0000.89
2022-11-26 01:16:00,,0828.1,4.98,0.00,27.5,25.9,00.0,36.5,29.2,10.2,0000.0,0002.14,0001.18,0000.89
2022-11-26 01:17:00,,0828.1,5.02,0.00,27.4,25.9,00.0,36.5,29.2,10.2,0000.0,0002.15,0001.16,0000.88
2022-11-26 01:18:00,,0828.1,4.98,0.00,27.4,25.9,00.0,36.5,29.2,10.2,0000.0,0002.16,0001.14,0000.88
2022-11-26 01:19:00,,0828.1,5.02,0.00,27.4,25.9,00.0,36.5,29.2,10.1,0000.0,0002.15,0001.13,0000.87
2022-11-26 01:20:00,,0828.1,4.99,0.00,27.4,25.8,00.0,36.5,29.1,10.2,0000.0,0002.14,0001.13,0000.87
2022-11-26 01:21:00,,0828.1,5.00,0.00,27.4,25.8,00.0,36.5,29.1,10.2,0000.0,0002.13,0001.15,0000.88
2022-11-26 01:22:00,,0828.1,5.01,0.00,27.4,25.8,00.0,36.5,29.1,10.2,0000.0,0002.12,0001.16,0000.88
2022-11-26 01:23:00,,0828.1,5.00,0.00,27.4,25.8,00.0,36.4,29.0,10.2,0000.0,0002.18,0001.18,0000.88
2022-11-26 01:24:00,,0828.1,4.99,0.00,27.4,25.8,00.0,36.4,29.0,10.2,0000.0,0002.60,0001.18,0000.89
2022-11-26 01:25:00,,0828.0,5.00,0.00,27.4,25.8,00.0,36.4,29.1,10.3,0000.0,0003.31,0001.14,0000.90
2022-11-26 01:26:00,,0828.0,5.00,0.00,27.4,25.8,00.0,36.4,29.1,10.3,0000.0,0003.22,0001.13,0000.90
2022-11-26 01:27:00,,0828.0,5.01,0.00,27.3,25.8,00.0,36.4,29.0,10.2,0000.0,0003.22,0001.13,0000.91
2022-11-26 01:28:00,,0827.9,4.98,0.00,27.3,25.7,00.0,36.4,29.1,10.3,0000.0,0003.20,0001.14,0000.91
2022-11-26 01:29:00,,0827.9,5.01,0.00,27.3,25.7,00.0,36.4,29.1,10.3,0000.0,0003.33,0001.19,0000.92
2022-11-26 01:30:00,,0827.9,5.00,0.00,27.3,25.7,00.0,36.4,29.1,10.4,0000.0,0004.07,0001.22,0000.93
2022-11-26 01:31:00,,0827.9,4.99,0.00,27.3,25.7,00.0,36.3,29.1,10.4,0000.0,0004.10,0001.23,0000.93
2022-11-26 01:32:00,,0828.0,5.02,0.00,27.3,25.7,00.0,36.3,29.1,10.3,0000.0,0004.02,0001.21,0000.92
2022-11-26 01:33:00,,0827.9,4.98,0.00,27.3,25.7,00.0,36.3,29.1,10.3,0000.0,0003.88,0001.17,0000.92
2022-11-26 01:34:00,,0827.9,5.02,0.00,27.3,25.7,00.0,36.3,29.0,10.3,0000.0,0003.96,0001.18,0000.93
2022-11-26 01:35:00,,0827.8,4.99,0.00,27.3,25.6,00.0,36.3,29.0,10.4,0000.0,0003.68,0001.20,0000.93
2022-11-26 01:36:00,,0827.9,5.01,0.00,27.3,25.6,00.0,36.3,29.0,10.4,0000.0,0003.19,0001.24,0000.92
2022-11-26 01:37:00,,0827.9,5.00,0.00,27.2,25.6,00.0,36.3,29.0,10.4,0000.0,0003.80,0001.25,0000.93
2022-11-26 01:38:00,,0827.9,5.00,0.00,27.2,25.6,00.0,36.3,29.0,10.5,0000.0,0003.73,0001.25,0000.94
2022-11-26 01:39:00,,0827.9,5.00,0.00,27.2,25.6,00.0,36.3,28.9,10.4,0000.0,0004.73,0001.27,0000.95
2022-11-26 01:40:00,,0827.8,4.98,0.00,27.2,25.6,00.0,36.2,28.9,10.4,0000.0,0005.15,0001.26,0000.96
2022-11-26 01:41:00,,0827.8,5.01,0.00,27.2,25.6,00.0,36.2,28.8,10.4,0000.0,0004.33,0001.23,0000.96
2022-11-26 01:42:00,,0827.8,4.99,0.00,27.2,25.6,00.0,36.2,28.8,10.4,0000.0,0004.42,0001.26,0000.96
2022-11-26 01:43:00,,0827.7,5.02,0.00,27.2,25.6,00.0,36.2,28.9,10.5,0000.0,0004.36,0001.24,0000.96
2022-11-26 01:44:00,,0827.7,4.98,0.00,27.1,25.5,00.0,36.2,28.9,10.5,0000.0,0004.82,0001.23,0000.96
2022-11-26 01:45:00,,0827.7,5.00,0.00,27.1,25.5,00.0,36.2,28.9,10.4,0000.0,0005.36,0001.23,0000.96
2022-11-26 01:46:00,,0827.7,5.01,0.00,27.1,25.5,00.0,36.2,28.9,10.4,0000.0,0005.70,0001.25,0000.95
2022-11-26 01:47:00,,0827.7,4.99,0.00,27.1,25.5,00.0,36.2,28.9,10.4,0000.0,0005.97,0001.24,0000.94
2022-11-26 01:48:00,,0827.7,5.01,0.00,27.1,25.5,00.0,36.1,28.8,10.4,0000.0,0006.20,0001.23,0000.93
2022-11-26 01:49:00,,0827.7,4.99,0.00,27.1,25.5,00.0,36.1,28.8,10.4,0000.0,0006.15,0001.25,0000.92
2022-11-26 01:50:00,,0827.7,5.00,0.00,27.1,25.5,00.0,36.1,28.9,10.4,0000.0,0005.43,0001.24,0000.91
2022-11-26 01:51:00,,0827.7,5.01,0.00,27.1,25.5,00.0,36.1,28.9,10.4,0000.0,0004.82,0001.23,0000.89
2022-11-26 01:52:00,,0827.7,4.98,0.00,27.1,25.5,00.0,36.1,28.8,10.5,0000.0,0004.80,0001.23,0000.90
2022-11-26 01:53:00,,0827.7,5.02,0.00,27.1,25.5,00.0,36.1,28.7,10.5,0000.0,0004.70,0001.19,0000.88
2022-11-26 01:54:00,,0827.7,4.98,0.00,27.0,25.4,00.0,36.1,28.8,10.6,0000.0,0004.79,0001.22,0000.89
2022-11-26 01:55:00,,0827.7,5.01,0.00,27.0,25.4,00.0,36.1,28.7,10.5,0000.0,0004.40,0001.22,0000.88
2022-11-26 01:56:00,,0827.7,5.00,0.00,27.0,25.4,00.0,36.1,28.7,10.6,0000.0,0003.69,0001.20,0000.87
2022-11-26 01:57:00,,0827.7,5.00,0.00,27.0,25.4,00.0,36.0,28.7,10.6,0000.0,0003.24,0001.16,0000.87
2022-11-26 01:58:00,,0827.7,5.00,0.00,27.0,25.4,00.0,36.0,28.7,10.6,0000.0,0002.77,0001.14,0000.87
2022-11-26 01:59:00,,0827.7,5.00,0.00,27.0,25.4,00.0,36.0,28.6,10.6,0000.0,0001.83,0001.14,0000.87
